Location: Newark
(45.5167°N, 11.1667°E)
Time: 13:40:47
(UTC+00:00)

Vanguard 2 Rocket - Visible Passes

Search period start: 13 December 2019 00:00
Search period end: 23 December 2019 00:00
Orbit: 554 x 3326 km, 32.9° (Epoch: 13 December)

Date Brightness Start Highest point End Pass type
(mag) Time Alt. Az. Time Alt. Az. Time Alt. Az.
13 Dec 9.1 17:18:16 10° WSW 17:31:54 41° S 17:38:09 19° ESE visible
13 Dec 9.0 19:35:40 10° WSW 19:43:59 32° SW 19:43:59 32° SW visible
14 Dec 9.6 16:16:25 10° SW 16:31:30 40° S 16:41:02 10° ESE visible
14 Dec 8.6 18:33:37 10° WSW 18:45:42 40° S 18:47:52 35° SSE visible
14 Dec 10.0 20:51:47 10° WSW 20:53:40 14° WSW 20:53:40 14° WSW visible
15 Dec 9.0 17:31:27 10° WSW 17:45:40 44° S 17:51:46 22° SE visible
15 Dec 9.2 19:49:31 10° W 19:57:35 28° SW 19:57:35 28° SW visible
16 Dec 9.5 16:29:19 10° WSW 16:45:15 45° S 16:55:09 10° ESE visible
16 Dec 8.8 18:47:14 10° WSW 18:59:20 38° SSW 19:01:30 34° S visible
16 Dec 10.1 21:06:37 10° WSW 21:07:19 11° WSW 21:07:19 11° WSW visible
17 Dec 9.1 17:44:53 10° WSW 17:59:21 44° S 18:05:27 22° SE visible
17 Dec 9.5 20:03:37 10° W 20:11:16 24° SW 20:11:16 24° SW visible
18 Dec 9.5 16:42:32 10° WSW 16:58:56 48° S 17:09:06 10° ESE visible
18 Dec 9.0 19:01:01 10° W 19:12:48 34° SSW 19:15:16 30° S visible
19 Dec 9.9 15:40:22 10° WSW 15:58:08 49° S 16:09:49 10° ESE visible
19 Dec 9.2 17:58:28 10° W 18:12:55 42° SSW 18:19:17 21° SE visible
19 Dec 9.7 20:18:11 10° W 20:25:07 18° SW 20:25:07 18° SW visible
20 Dec 9.6 16:55:57 10° WSW 17:12:33 48° S 17:22:55 10° ESE visible
20 Dec 9.3 19:15:02 10° W 19:26:04 28° SW 19:29:11 24° S visible
21 Dec 9.8 15:53:38 10° WSW 16:11:45 51° S 16:23:43 10° ESE visible
21 Dec 9.5 18:12:13 10° W 18:26:18 37° SSW 18:33:19 18° SSE visible
21 Dec 10.0 20:33:55 10° WSW 20:38:17 13° SW 20:39:09 13° SW visible
22 Dec 9.7 17:09:33 10° W 17:26:03 45° SSW 17:36:34 10° SE visible
22 Dec 9.7 19:29:27 10° W 19:39:06 22° SW 19:43:21 17° SSW visible
